Location: Cisewo
(53.3833°N, 14.9000°E)
Time: 19:42:42
(UTC+00:00)

RS-44 - Visible Passes

Search period start: 19 September 2021 00:00
Search period end: 29 September 2021 00:00
Orbit: 1175 x 1510 km, 82.5° (Epoch: 19 September)

Date Brightness Start Highest point End Pass type
(mag) Time Alt. Az. Time Alt. Az. Time Alt. Az.
19 Sep ? 01:28:29 10° SE 01:36:05 34° E 01:43:43 10° NNE visible
19 Sep ? 03:20:00 10° SSW 03:28:53 76° WNW 03:37:49 10° N visible
20 Sep ? 00:05:23 10° E 00:08:22 12° ENE 00:11:20 10° NE visible
20 Sep ? 01:51:14 10° SSE 01:59:32 47° E 02:07:51 10° NNE visible
20 Sep ? 03:44:13 10° SSW 03:52:55 56° WNW 04:01:39 10° N visible
21 Sep ? 00:25:54 10° ESE 00:31:21 18° ENE 00:36:48 10° NNE visible
21 Sep ? 02:14:24 10° S 02:23:08 65° E 02:31:52 10° NNE visible
22 Sep ? 00:47:37 10° SE 00:54:32 26° ENE 01:01:23 10° NNE visible
22 Sep ? 02:37:58 10° S 02:46:54 87° E 02:55:47 10° NNE visible
23 Sep ? 01:10:01 10° SE 01:17:51 37° E 01:25:39 10° NNE visible
23 Sep ? 03:01:55 10° SSW 03:10:49 70° WNW 03:19:39 10° N visible
23 Sep ? 23:46:10 10° E 23:49:59 14° ENE 23:53:47 10° NE visible
24 Sep ? 01:32:52 10° SSE 01:41:21 51° E 01:49:44 10° NNE visible
24 Sep ? 03:26:16 10° SW 03:34:54 52° WNW 03:43:27 10° N visible
25 Sep ? 00:07:08 10° ESE 00:13:02 20° ENE 00:18:52 10° NNE visible
25 Sep ? 01:56:59 13° S 02:05:00 71° E 02:13:44 10° NNE visible
25 Sep ? 03:50:59 10° SW 03:59:09 38° WNW 04:07:13 10° N visible
26 Sep ? 00:29:04 10° SE 00:36:15 29° ENE 00:43:21 10° NNE visible
26 Sep ? 02:21:30 17° S 02:28:48 86° W 02:37:38 10° NNE visible
26 Sep ? 04:16:08 10° WSW 04:23:34 29° NW 04:30:54 10° N visible
27 Sep ? 00:53:19 17° SE 00:59:38 40° E 01:07:33 10° NNE visible
27 Sep ? 02:45:58 19° SSW 02:52:46 65° WNW 03:01:28 10° N visible
27 Sep ? 23:27:10 10° E 23:31:37 15° ENE 23:36:01 10° NE visible
28 Sep ? 01:17:42 24° SSE 01:23:10 56° E 01:31:36 10° NNE visible
28 Sep ? 03:10:21 18° SW 03:16:52 48° WNW 03:25:14 10° N visible
